TimeAKST,TemperatureF,Dew PointF,Humidity,Sea Level PressureIn,VisibilityMPH,Wind Direction,Wind SpeedMPH,Gust SpeedMPH,PrecipitationIn,Events,Conditions,WindDirDegrees,DateUTC
12:53 AM,32.0,32.0,100,29.86,7.0,Calm,Calm,-,N/A,,Overcast,0,2013-12-29 09:53:00
1:53 AM,32.0,30.9,96,29.84,10.0,WNW,4.6,-,N/A,,Mostly Cloudy,290,2013-12-29 10:53:00
2:21 AM,33.8,32.0,93,29.84,10.0,Calm,Calm,-,N/A,,Overcast,0,2013-12-29 11:21:00
3:20 AM,33.8,32.0,93,29.83,10.0,West,3.5,-,N/A,,Overcast,270,2013-12-29 12:20:00
3:53 AM,34.0,33.1,96,29.82,4.0,WSW,5.8,-,N/A,,Overcast,240,2013-12-29 12:53:00
4:53 AM,34.0,34.0,100,29.81,10.0,Calm,Calm,-,N/A,,Overcast,0,2013-12-29 13:53:00
5:07 AM,33.8,32.0,93,29.80,8.0,West,3.5,-,N/A,,Overcast,260,2013-12-29 14:07:00
5:14 AM,33.8,33.8,100,29.79,8.0,WNW,5.8,-,N/A,,Overcast,290,2013-12-29 14:14:00
5:34 AM,33.8,33.8,100,29.79,6.0,Calm,Calm,-,N/A,,Overcast,0,2013-12-29 14:34:00
5:53 AM,34.0,33.1,96,29.80,1.0,SW,3.5,-,N/A,,Overcast,230,2013-12-29 14:53:00
6:00 AM,35.6,33.8,93,29.79,1.2,WSW,3.5,-,0.00,Snow,Light Snow,240,2013-12-29 15:00:00
6:43 AM,33.8,33.8,100,29.78,1.0,West,3.5,-,0.01,,Mist,260,2013-12-29 15:43:00
6:53 AM,34.0,34.0,100,29.78,1.0,Calm,Calm,-,0.01,,Mist,0,2013-12-29 15:53:00
7:19 AM,33.8,33.8,100,29.77,1.0,West,3.5,-,0.00,,Overcast,280,2013-12-29 16:19:00
7:53 AM,34.0,34.0,100,29.76,1.0,WNW,3.5,-,0.01,,Overcast,290,2013-12-29 16:53:00
8:12 AM,33.8,33.8,100,29.75,3.0,WNW,3.5,-,N/A,,Overcast,290,2013-12-29 17:12:00
8:53 AM,36.0,35.1,97,29.74,3.0,WNW,4.6,-,0.00,,Overcast,300,2013-12-29 17:53:00
9:14 AM,35.6,35.6,100,29.73,5.0,WNW,3.5,-,N/A,,Overcast,290,2013-12-29 18:14:00
9:44 AM,35.6,35.6,100,29.74,3.0,Calm,Calm,-,N/A,,Overcast,0,2013-12-29 18:44:00
9:53 AM,35.1,35.1,100,29.74,3.0,Calm,Calm,-,N/A,,Overcast,0,2013-12-29 18:53:00
10:08 AM,35.6,35.6,100,29.73,1.0,WNW,4.6,-,N/A,,Overcast,300,2013-12-29 19:08:00
10:26 AM,37.4,35.6,93,29.72,0.5,Variable,3.5,-,0.00,Fog-Rain,Light Rain,0,2013-12-29 19:26:00
10:31 AM,35.6,35.6,100,29.72,1.0,Calm,Calm,-,0.00,Rain,Light Rain,0,2013-12-29 19:31:00
10:53 AM,37.9,37.0,97,29.71,2.0,Variable,3.5,-,0.00,Rain,Light Rain,0,2013-12-29 19:53:00
11:53 AM,37.9,37.9,100,29.70,1.0,NE,9.2,-,0.01,Rain,Light Rain,40,2013-12-29 20:53:00
12:53 PM,37.9,37.9,100,29.67,3.0,NE,10.4,-,0.00,Rain,Light Rain,50,2013-12-29 21:53:00
1:53 PM,37.9,37.9,100,29.65,2.0,NE,8.1,-,0.03,Rain,Light Rain,50,2013-12-29 22:53:00
2:27 PM,37.4,37.4,100,29.63,6.0,NE,8.1,-,0.01,Rain,Light Rain,50,2013-12-29 23:27:00
2:53 PM,37.9,36.0,93,29.63,7.0,NE,12.7,-,0.02,Rain,Light Rain,50,2013-12-29 23:53:00
3:53 PM,39.0,37.0,93,29.61,5.0,North,4.6,-,0.04,Rain,Light Rain,10,2013-12-30 00:53:00
4:53 PM,39.0,37.9,96,29.59,3.0,NNE,12.7,-,0.03,Rain,Light Rain,30,2013-12-30 01:53:00
5:53 PM,39.0,37.0,93,29.58,3.0,NE,16.1,-,0.03,Rain,Light Rain,40,2013-12-30 02:53:00
6:53 PM,39.0,37.9,96,29.57,3.0,NE,11.5,-,0.03,Rain,Light Rain,40,2013-12-30 03:53:00
7:53 PM,39.9,37.9,93,29.55,3.0,NNE,17.3,24.2,0.05,Rain,Light Rain,30,2013-12-30 04:53:00
8:53 PM,39.9,37.9,93,29.54,3.0,NE,15.0,-,0.06,Rain,Light Rain,40,2013-12-30 05:53:00
9:53 PM,39.0,37.9,96,29.53,2.0,NE,11.5,-,0.04,Rain,Light Rain,40,2013-12-30 06:53:00
10:53 PM,39.0,37.9,96,29.52,2.0,NE,15.0,-,0.09,Rain,Light Rain,40,2013-12-30 07:53:00
11:00 PM,39.2,37.4,93,29.52,1.8,NNE,12.7,-,0.01,Rain,Light Rain,30,2013-12-30 08:00:00
11:16 PM,39.2,37.4,93,29.51,2.0,NNE,11.5,-,0.02,Rain,Light Rain,30,2013-12-30 08:16:00
11:53 PM,39.0,37.9,96,29.51,2.0,NE,11.5,-,0.06,Rain,Light Rain,40,2013-12-30 08:53:00